Alijar, Spain

5:11 AM CET on February 20, 2017 (GMT +0100)
Rota Navy

Weather History for LERT - December, 2013

Change the Weather History Date:

Saturday, December 14, 2013

  Actual Average Record
Temperature  
Mean Temperature 57 °F -  
Max Temperature 66 °F 57 °F 73 °F (1998)
Min Temperature 48 °F 45 °F 37 °F (2005)
Degree Days  
Heating Degree Days 8    
Growing Degree Days 7 (Base 50)    
Moisture  
Dew Point 48 °F    
Average Humidity 72    
Maximum Humidity 94    
Minimum Humidity 59    
Precipitation  
Precipitation 0.00 in - - ()
Sea Level Pressure  
Sea Level Pressure 30.35 in    
Wind  
Wind Speed 7 mph ()    
Max Wind Speed 14 mph    
Max Gust Speed -    
Visibility 6.0 miles    
Events      
Averages and records for this station are not official NWS values.
T = Trace of Precipitation, MM = Missing Value Source: Averaged Metar Reports

Daily Weather History Graph

Daily Weather History Graph

Search for Another Location

Airport or City:

Trip Planner

Search our weather history database for the weather conditions in past years. The results will help you decide how hot, cold, wet, or windy it might be!

Date:

Astronomy

Dec. 14, 2013 Rise Set
Actual Time 8:29 AM CET 6:10 PM CET
Civil Twilight 8:00 AM CET 6:39 PM CET
Nautical Twilight 7:28 AM CET 7:11 PM CET
Astronomical Twilight 6:57 AM CET 7:43 PM CET
Moon 4:20 PM CET (12/14) 5:40 AM CET (12/14)
Length of Visible Light 10h 38m
Length of Day
9h 40m
Waxing Gibbous, 92% of the Moon is Illuminated
Dec 14
Waxing Gibbous
Dec 17
Full
Dec 25
Last Quarter
Jan 1
New
Jan 8
First Quarter

Hourly Weather History & Observations

Time (CET) Temp. Dew Point Humidity Pressure Visibility Wind Dir Wind Speed Gust Speed Precip Events Conditions
12:00 AM 57.2 °F 55.4 °F 94% 30.33 in 6.2 mi NE 3.5 mph - N/A   Scattered Clouds
1:00 AM 55.4 °F 51.8 °F 88% 30.33 in 6.2 mi NNE 3.5 mph - N/A   Partly Cloudy
2:00 AM 53.6 °F 50.0 °F 88% 30.33 in - NE 5.8 mph - N/A   Clear
3:00 AM 53.6 °F 46.4 °F 77% 30.30 in - NE 5.8 mph - N/A   Clear
4:00 AM 50.0 °F 44.6 °F 82% 30.30 in - NNE 6.9 mph - N/A   Clear
5:00 AM 50.0 °F 42.8 °F 76% 30.33 in - NNE 8.1 mph - N/A   Clear
6:00 AM 48.2 °F 42.8 °F 82% 30.30 in - NNE 8.1 mph - N/A   Clear
7:00 AM 48.2 °F 42.8 °F 82% 30.30 in - North 6.9 mph - N/A   Clear
8:00 AM 48.2 °F 42.8 °F 82% 30.33 in 5.0 mi North 10.4 mph - N/A   Unknown
9:00 AM 48.2 °F 42.8 °F 82% 30.36 in 5.6 mi North 12.7 mph - N/A   Unknown
10:00 AM 50.0 °F 44.6 °F 82% 30.36 in 5.6 mi NNE 11.5 mph - N/A   Unknown
11:00 AM 55.4 °F 46.4 °F 72% 30.39 in - ENE 11.5 mph - N/A   Clear
12:00 PM 62.6 °F 51.8 °F 68% 30.39 in - ESE 10.4 mph - N/A   Clear
1:00 PM 62.6 °F 51.8 °F 68% 30.36 in - SE 6.9 mph - N/A   Clear
2:00 PM 66.2 °F 51.8 °F 60% 30.36 in 6.2 mi SE 8.1 mph - N/A   Partly Cloudy
3:00 PM 66.2 °F 51.8 °F 60% 30.33 in 6.2 mi SE 9.2 mph - N/A   Partly Cloudy
4:00 PM 66.2 °F 51.8 °F 60% 30.33 in 6.2 mi SE 11.5 mph - N/A   Partly Cloudy
5:00 PM 64.4 °F 50.0 °F 59% 30.36 in 6.2 mi SE 13.8 mph - N/A   Partly Cloudy
6:00 PM 62.6 °F 48.2 °F 59% 30.36 in 6.2 mi SE 12.7 mph - N/A   Partly Cloudy
7:00 PM 60.8 °F 48.2 °F 63% 30.39 in 6.2 mi SE 8.1 mph - N/A   Partly Cloudy
8:00 PM 59.0 °F 44.6 °F 59% 30.39 in - NE 3.5 mph - N/A   Clear
9:00 PM 59.0 °F 46.4 °F 63% 30.42 in - SE 10.4 mph - N/A   Clear
10:00 PM 59.0 °F 46.4 °F 63% 30.42 in - ESE 12.7 mph - N/A   Clear
11:00 PM 57.2 °F 46.4 °F 67% 30.42 in - ESE 9.2 mph - N/A   Clear